Location: Taylor Dark Sky Site
(39.1017°N, 87.9564°W)
Time: 22:40:24
(UTC-05:00)

Amateur Radio Satellites - All Passes

Search period start: 28 April 2017 22:10
Search period end: 29 April 2017 22:10
Location: Taylor Dark Sky Site, 39.1017°N, 87.9564°W

Satellite Date Start Highest point End Downlink Frequencies (MHz)
Time Altitude Azimuth
LO-87 28 Apr 22:12:04 22:14:18 16° 68° (ENE) 22:16:32 145.935 - 145.965
UNISAT 6 28 Apr 22:13:17 22:16:52 25° 96° (E) 22:20:27 437.425
PRISM 28 Apr 22:32:33 22:36:42 67° 102° (ESE) 22:40:46 437.425
BEESAT 3 28 Apr 22:34:52 22:38:53 76° 241° (WSW) 22:42:51 437.485
BEESAT 2 28 Apr 22:39:11 22:43:05 43° 54° (NE) 22:46:56 435.950
DELFI C3 28 Apr 22:43:24 22:46:19 19° 266° (W) 22:49:14 145.870
OBJECT BX 28 Apr 22:49:15 22:51:52 19° 266° (W) 22:54:29 145.990 - 145.960
FO-29 28 Apr 22:55:32 23:00:41 53° 101° (E) 23:06:14 435.910
TIGRISAT 28 Apr 23:27:28 23:31:36 49° 286° (WNW) 23:35:49 435.000
ESTCUBE 1 28 Apr 23:31:54 23:36:23 83° 79° (E) 23:40:56 437.505/2401.250
POLYITAN 1 28 Apr 23:33:59 23:35:52 13° 92° (E) 23:37:43 437.675
VELOX 1 28 Apr 23:35:24 23:39:02 25° 68° (ENE) 23:42:41 145.980
QB50P2 28 Apr 23:40:00 23:42:43 17° 93° (E) 23:45:25 145.880/145.840
LO-87 28 Apr 23:44:16 23:47:29 30° 263° (W) 23:50:43 145.935 - 145.965
AIST 2D 28 Apr 23:49:29 23:52:47 37° 98° (E) 23:56:06 435.315
UNISAT 6 28 Apr 23:49:54 23:53:30 26° 290° (WNW) 23:57:08 437.425
NANOSAT C BR1 28 Apr 23:58:56 00:02:16 23° 95° (E) 00:05:35 145.865
50 SAT 29 Apr 00:02:39 00:05:24 22° 70° (ENE) 00:08:11 437.505
PRISM 29 Apr 00:10:53 00:11:22 10° 298° (WNW) 00:11:51 437.425
BEESAT 2 29 Apr 00:18:03 00:20:28 15° 250° (WSW) 00:22:52 435.950
SPROUT 29 Apr 00:18:38 00:22:53 69° 75° (ENE) 00:27:08 437.525
DX 1 29 Apr 00:19:04 00:22:47 28° 69° (ENE) 00:26:32 434.975-435.025
DUCHIFAT 1 29 Apr 00:26:51 00:30:51 42° 99° (E) 00:34:49 145.980
EO-79 29 Apr 00:27:44 00:31:52 55° 100° (E) 00:35:58 145.935-145.965
FO-29 29 Apr 00:41:55 00:45:27 18° 296° (WNW) 00:49:06 435.910
PCSat 29 Apr 00:45:06 00:48:27 17° 104° (ESE) 00:51:48 145.827
POLYITAN 1 29 Apr 01:07:50 01:11:53 49° 287° (WNW) 01:15:56 437.675
VELOX 1 29 Apr 01:11:30 01:15:21 28° 264° (W) 01:19:13 145.980
QB50P2 29 Apr 01:14:45 01:18:37 37° 288° (WNW) 01:22:30 145.880/145.840
UKube-1 29 Apr 01:16:14 01:20:33 85° 76° (ENE) 01:24:55 .
BUGSAT 1 29 Apr 01:18:36 01:22:31 51° 100° (E) 01:26:25 437.445
AIST 2D 29 Apr 01:24:13 01:25:39 12° 293° (WNW) 01:27:05 435.315
BEESAT 29 Apr 01:33:45 01:35:00 11° 61° (ENE) 01:36:15 436.000
NANOSAT C BR1 29 Apr 01:34:23 01:37:55 27° 290° (WNW) 01:41:27 145.865
50 SAT 29 Apr 01:35:47 01:38:17 18° 265° (W) 01:40:47 437.505
Oscar 19 29 Apr 01:53:05 01:57:57 39° 98° (E) 02:02:48 437.125/150
DX 1 29 Apr 01:55:20 01:58:55 24° 264° (W) 02:02:31 434.975-435.025
DUCHIFAT 1 29 Apr 02:03:43 02:06:09 15° 294° (WNW) 02:08:34 145.980
EO-79 29 Apr 02:05:23 02:07:08 12° 296° (WNW) 02:08:53 145.935-145.965
NO-84 29 Apr 02:12:51 02:15:45 70° 43° (NE) 02:18:34 435.350 FM
ITUPSAT 1 29 Apr 02:12:58 02:16:57 27° 68° (ENE) 02:20:56 437.325
Gurwin Techsat 1B 29 Apr 02:14:55 02:19:51 37° 98° (E) 02:24:44 435.225
PCSat 29 Apr 02:25:55 02:31:16 62° 301° (WNW) 02:36:40 145.827
MOZHAYETS 4 29 Apr 02:39:12 02:42:46 23° 68° (ENE) 02:46:22
BUGSAT 1 29 Apr 02:55:52 02:57:25 12° 296° (WNW) 02:58:58 437.445
AO-7 29 Apr 02:58:57 03:04:05 17° 91° (E) 03:09:11 .
BEESAT 29 Apr 03:07:19 03:12:05 81° 258° (WSW) 03:16:51 436.000
ITAMSAT 1 29 Apr 03:24:58 03:29:10 25° 95° (E) 03:33:20 435.822/435.867
YUBILEINY 29 Apr 03:27:05 03:34:33 34° 85° (E) 03:42:01 435.215
Oscar 19 29 Apr 03:32:54 03:37:02 24° 294° (WNW) 03:41:09 437.125/150
CUBESAT XI-V 29 Apr 03:37:48 03:40:48 17° 65° (ENE) 03:43:48 437.345
ITUPSAT 1 29 Apr 03:50:32 03:54:40 29° 263° (W) 03:58:49 437.325
Gurwin Techsat 1B 29 Apr 03:55:13 03:59:35 27° 294° (WNW) 04:03:56 435.225
KKS-1 29 Apr 04:08:27 04:12:33 36° 71° (ENE) 04:16:40 437.445
PCSat 29 Apr 04:14:18 04:15:47 11° 321° (NW) 04:17:16 145.827
MOZHAYETS 4 29 Apr 04:15:41 04:19:45 32° 263° (W) 04:23:50
STARS 29 Apr 04:33:01 04:36:49 29° 69° (ENE) 04:40:37 437.465
SO-50 29 Apr 04:45:20 04:47:40 14° 108° (ESE) 04:50:00 436.795
AO-7 29 Apr 04:49:23 04:57:45 88° 289° (WNW) 05:06:07 .
ITAMSAT 1 29 Apr 05:03:56 05:08:41 38° 291° (WNW) 05:13:25 435.822/435.867
CUBESAT XI-V 29 Apr 05:13:17 05:17:45 47° 261° (W) 05:22:17 437.345
YUBILEINY 29 Apr 05:22:36 05:30:57 50° 283° (WNW) 05:39:22 435.215
KKS-1 29 Apr 05:45:59 05:49:12 19° 266° (W) 05:52:25 437.445
XW-2F 29 Apr 05:57:02 05:58:02 11° 91° (E) 05:59:02 145.980 - 146.000
STARS 29 Apr 06:09:33 06:13:07 24° 264° (W) 06:16:41 437.465
M-CUBED/EXP-1 PRIME 29 Apr 06:17:17 06:20:36 20° 61° (ENE) 06:23:56 437.505
SO-50 29 Apr 06:23:03 06:27:37 61° 304° (NW) 06:32:09 436.795
CUTE-I 29 Apr 06:31:12 06:35:52 30° 96° (E) 06:40:29 437.470
RS-15 29 Apr 06:37:34 06:49:05 57° 111° (ESE) 07:00:57 29.354- 29.394
AO-7 29 Apr 06:43:51 06:49:24 20° 308° (NW) 06:54:59 .
ISS 29 Apr 06:44:21 06:46:56 22° 132° (SE) 06:49:31 437.550
XW-2D 29 Apr 06:46:13 06:49:57 50° 100° (E) 06:53:40 145.860 - 145.880
XW-2B 29 Apr 06:53:11 06:56:59 60° 101° (E) 07:00:46 145.730 - 145.750
STRAND 1 29 Apr 06:54:23 06:59:07 41° 70° (ENE) 07:03:54 437.568
HO-68 29 Apr 06:54:37 06:58:25 15° 90° (E) 07:02:10 435.675
KAITUO 1B 29 Apr 06:56:08 06:59:50 51° 100° (E) 07:03:31 145.475/437.950
DOVE 4 29 Apr 06:57:26 07:01:58 76° 283° (WNW) 07:06:14 437.250
XW-2C 29 Apr 07:05:12 07:09:03 89° 107° (ESE) 07:12:53 145.795 - 145.815
LilacSat-2 29 Apr 07:07:25 07:11:16 82° 284° (WNW) 07:15:07 437.200
CUTE 1.7 + AOD 2 29 Apr 07:14:57 07:17:06 13° 91° (E) 07:19:14 437.475
XW-2F 29 Apr 07:28:44 07:32:24 46° 286° (WNW) 07:36:04 145.980 - 146.000
SEEDS 29 Apr 07:29:51 07:31:41 12° 91° (E) 07:33:30 437.485
NUDT-PHONESAT 29 Apr 07:31:38 07:35:15 52° 286° (WNW) 07:38:54 437.300
Tancredo 1 29 Apr 07:36:59 07:40:03 71° 322° (NW) 07:43:08 437.200
M-CUBED/EXP-1 PRIME 29 Apr 07:50:12 07:54:38 46° 256° (WSW) 07:59:09 437.505
CUTE-I 29 Apr 08:11:11 08:15:51 32° 292° (WNW) 08:20:29 437.470
ISS 29 Apr 08:20:12 08:23:16 37° 328° (NNW) 08:26:21 437.550
XW-2D 29 Apr 08:22:36 08:23:40 11° 295° (WNW) 08:24:45 145.860 - 145.880
AAUSAT CUBESAT 2 29 Apr 08:27:42 08:31:18 27° 96° (E) 08:34:52 437.432
UWE-3 29 Apr 08:29:18 08:32:48 25° 96° (E) 08:36:22 435.000/436.395/437.385
XW-2A 29 Apr 08:30:14 08:33:34 64° 284° (WNW) 08:36:54 145.665 - 145.685
KAITUO 1B 29 Apr 08:32:30 08:33:22 11° 295° (WNW) 08:34:14 145.475/437.950
STRAND 1 29 Apr 08:34:32 08:38:26 22° 266° (W) 08:42:21 437.568
HO-68 29 Apr 08:39:42 08:46:57 89° 286° (WNW) 08:54:10 435.675
CUBEBUG 2 29 Apr 08:48:02 08:52:14 72° 102° (ESE) 08:56:29 437.445
CUTE 1.7 + AOD 2 29 Apr 08:49:02 08:53:11 48° 286° (WNW) 08:57:18 437.475
RS-15 29 Apr 08:50:18 09:01:53 48° 314° (NW) 09:13:46 29.354- 29.394
TIGRISAT 29 Apr 08:51:44 08:52:47 11° 63° (ENE) 08:53:49 435.000
SEEDS 29 Apr 09:03:30 09:07:38 51° 286° (WNW) 09:11:45 437.485
O/OREOS (USA 219) 29 Apr 09:05:59 09:09:26 21° 101° (ESE) 09:12:55 437.305
FO-29 29 Apr 09:08:08 09:12:30 21° 65° (ENE) 09:16:33 435.910
UNISAT 6 29 Apr 09:11:31 09:14:40 20° 68° (ENE) 09:17:47 437.425
Tancredo 1 29 Apr 09:14:41 09:16:24 14° 341° (NNW) 09:18:07 437.200
ZACube-1 29 Apr 09:17:43 09:21:52 51° 100° (E) 09:26:05 437.345
PRISM 29 Apr 09:20:25 09:24:17 39° 72° (ENE) 09:28:12 437.425
AO-73 29 Apr 09:22:49 09:26:59 53° 99° (E) 09:31:14 145.935
PCSat 29 Apr 09:33:15 09:36:00 14° 42° (NE) 09:38:46 145.827
Oscar 11 29 Apr 09:34:52 09:39:10 60° 100° (E) 09:43:28 .
ISS 29 Apr 09:59:16 10:00:30 12° 347° (NNW) 10:01:42 437.550
AAUSAT CUBESAT 2 29 Apr 10:03:18 10:06:37 23° 291° (WNW) 10:09:55 437.432
UWE-3 29 Apr 10:05:43 10:09:11 25° 290° (WNW) 10:12:42 435.000/436.395/437.385
OBJECT BX 29 Apr 10:18:01 10:21:26 36° 98° (E) 10:24:50 145.990 - 145.960
DELFI C3 29 Apr 10:20:13 10:24:09 55° 100° (E) 10:28:03 145.870
TIGRISAT 29 Apr 10:24:34 10:28:55 67° 259° (W) 10:33:12 435.000
AIST 2D 29 Apr 10:24:35 10:25:56 12° 67° (ENE) 10:27:18 435.315
HO-68 29 Apr 10:29:20 10:33:41 17° 305° (NW) 10:38:02 435.675
QB50P2 29 Apr 10:32:57 10:34:24 12° 64° (ENE) 10:35:52 145.880/145.840
O/OREOS (USA 219) 29 Apr 10:44:23 10:48:36 35° 298° (WNW) 10:52:50 437.305
UNISAT 6 29 Apr 10:47:11 10:51:09 34° 263° (W) 10:55:05 437.425
NANOSAT C BR1 29 Apr 10:50:43 10:53:11 15° 66° (ENE) 10:55:41 145.865
FO-29 29 Apr 10:51:09 10:57:17 54° 259° (W) 11:02:48 435.910
ZACube-1 29 Apr 10:55:38 10:57:44 14° 295° (WNW) 10:59:50 437.345
PRISM 29 Apr 10:57:14 10:59:43 15° 267° (W) 11:02:15 437.425
AO-73 29 Apr 11:00:47 11:02:47 13° 295° (WNW) 11:04:48 145.935
RS-15 29 Apr 11:09:54 11:18:40 21° 346° (NNW) 11:27:27 29.354- 29.394
LO-87 29 Apr 11:12:31 11:15:15 20° 95° (E) 11:17:57 145.935 - 145.965
Oscar 11 29 Apr 11:13:01 11:14:46 12° 296° (WNW) 11:16:32 .
PCSat 29 Apr 11:14:48 11:20:16 82° 61° (ENE) 11:25:41 145.827
DUCHIFAT 1 29 Apr 11:17:38 11:21:10 27° 70° (ENE) 11:24:42 145.980
EO-79 29 Apr 11:18:55 11:22:44 34° 71° (ENE) 11:26:33 145.935-145.965
ESTCUBE 1 29 Apr 11:26:20 11:29:36 19° 94° (E) 11:32:49 437.505/2401.250
ISS 29 Apr 11:37:58 11:38:12 10° 8° (N) 11:38:26 437.550
OBJECT BX 29 Apr 11:52:55 11:54:47 14° 293° (WNW) 11:56:39 145.990 - 145.960
AIST 2D 29 Apr 11:55:35 11:58:48 35° 262° (W) 12:02:02 435.315
DELFI C3 29 Apr 11:57:11 11:58:25 11° 296° (WNW) 11:59:39 145.870
POLYITAN 1 29 Apr 11:58:39 12:02:51 79° 257° (WSW) 12:07:04 437.675
AO-85 29 Apr 12:02:54 12:07:14 78° 119° (ESE) 12:11:18 145.980
QB50P2 29 Apr 12:05:30 12:09:40 60° 259° (W) 12:13:50 145.880/145.840
BUGSAT 1 29 Apr 12:07:07 12:10:45 30° 71° (ENE) 12:14:21 437.445
SPROUT 29 Apr 12:07:19 12:09:06 12° 91° (E) 12:10:52 437.525
BEESAT 3 29 Apr 12:24:06 12:27:09 22° 112° (ESE) 12:30:15 437.485
NANOSAT C BR1 29 Apr 12:24:32 12:28:32 42° 261° (W) 12:32:32 145.865
Tancredo 1 29 Apr 12:28:24 12:30:22 15° 21° (NNE) 12:32:21 437.200
LO-87 29 Apr 12:45:52 12:48:35 21° 290° (WNW) 12:51:17 145.935 - 145.965
DUCHIFAT 1 29 Apr 12:53:28 12:56:47 23° 265° (W) 13:00:07 145.980
EO-79 29 Apr 12:55:40 12:58:34 18° 266° (W) 13:01:29 145.935-145.965
50 SAT 29 Apr 12:59:27 13:02:27 26° 97° (E) 13:05:24 437.505
PCSat 29 Apr 13:00:51 13:02:53 12° 258° (WSW) 13:04:55 145.827
VELOX 1 29 Apr 13:01:49 13:06:11 56° 100° (E) 13:10:30 145.980
ESTCUBE 1 29 Apr 13:02:18 13:06:29 38° 289° (WNW) 13:10:41 437.505/2401.250
UKube-1 29 Apr 13:05:43 13:08:12 15° 93° (E) 13:10:39 .
Oscar 19 29 Apr 13:08:38 13:13:37 51° 72° (ENE) 13:18:39 437.125/150
ISS 29 Apr 13:12:49 13:15:36 25° 28° (NNE) 13:18:22 437.550
SO-50 29 Apr 13:16:51 13:18:39 12° 40° (NE) 13:20:27 436.795
RS-15 29 Apr 13:27:59 13:37:29 24° 22° (NNE) 13:46:44 29.354- 29.394
Gurwin Techsat 1B 29 Apr 13:34:44 13:39:54 53° 72° (ENE) 13:45:04 435.225
YUBILEINY 29 Apr 13:39:26 13:44:02 15° 61° (ENE) 13:48:38 435.215
SPROUT 29 Apr 13:41:10 13:45:17 51° 287° (WNW) 13:49:23 437.525
BUGSAT 1 29 Apr 13:43:06 13:46:07 19° 265° (W) 13:49:07 437.445
DX 1 29 Apr 13:43:33 13:47:52 60° 101° (ESE) 13:52:08 434.975-435.025
AO-85 29 Apr 13:46:25 13:48:03 12° 317° (NW) 13:49:40 145.980
AO-7 29 Apr 13:56:49 14:03:10 25° 55° (NE) 14:09:30 .
BEESAT 3 29 Apr 14:01:04 14:04:34 30° 309° (NW) 14:08:07 437.485
Tancredo 1 29 Apr 14:03:32 14:06:38 88° 222° (SW) 14:09:43 437.200
BEESAT 2 29 Apr 14:06:27 14:10:23 69° 302° (WNW) 14:14:24 435.950
50 SAT 29 Apr 14:32:59 14:35:08 16° 292° (WNW) 14:37:17 437.505
VELOX 1 29 Apr 14:39:59 14:42:07 13° 297° (WNW) 14:44:14 145.980
UKube-1 29 Apr 14:40:19 14:44:25 44° 288° (WNW) 14:48:30 .
ITAMSAT 1 29 Apr 14:41:41 14:46:19 34° 68° (ENE) 14:50:59 435.822/435.867
ISS 29 Apr 14:49:07 14:52:10 38° 224° (SW) 14:55:12 437.550
Oscar 19 29 Apr 14:49:47 14:53:13 18° 268° (W) 14:56:40 437.125/150
SO-50 29 Apr 14:55:17 14:59:48 85° 59° (ENE) 15:04:19 436.795
BEESAT 29 Apr 15:08:54 15:12:58 27° 96° (E) 15:17:01 436.000
Gurwin Techsat 1B 29 Apr 15:16:36 15:20:08 18° 268° (W) 15:23:41 435.225
DX 1 29 Apr 15:21:43 15:23:30 12° 297° (WNW) 15:25:18 434.975-435.025
YUBILEINY 29 Apr 15:33:33 15:42:22 78° 82° (E) 15:51:10 435.215
RS-15 29 Apr 15:41:04 15:53:15 62° 52° (NE) 16:04:48 29.354- 29.394
AO-7 29 Apr 15:46:52 15:55:08 74° 254° (WSW) 16:03:27 .
ITUPSAT 1 29 Apr 15:51:10 15:55:58 75° 103° (ESE) 16:00:45 437.325
MOZHAYETS 4 29 Apr 16:10:59 16:15:35 62° 101° (E) 16:20:09
ITAMSAT 1 29 Apr 16:21:26 16:25:47 27° 264° (W) 16:30:09 435.822/435.867
DOVE 4 29 Apr 16:26:49 16:28:33 12° 62° (ENE) 16:30:17 437.250
BEESAT 29 Apr 16:46:34 16:50:41 29° 292° (WNW) 16:54:46 436.000
CUBESAT XI-V 29 Apr 17:10:41 17:15:14 45° 99° (E) 17:19:43 437.345
HO-68 29 Apr 17:25:35 17:27:19 11° 50° (NE) 17:29:03 435.675
XW-2D 29 Apr 17:26:58 17:29:46 20° 69° (ENE) 17:32:36 145.860 - 145.880
NO-84 29 Apr 17:29:45 17:32:17 17° 126° (SE) 17:34:42 435.350 FM
ITUPSAT 1 29 Apr 17:31:23 17:33:08 12° 299° (WNW) 17:34:54 437.325
YUBILEINY 29 Apr 17:32:13 17:38:06 20° 281° (W) 17:44:00 435.215
XW-2B 29 Apr 17:33:44 17:36:46 24° 70° (ENE) 17:39:49 145.730 - 145.750
KAITUO 1B 29 Apr 17:35:42 17:38:25 20° 69° (ENE) 17:41:10 145.475/437.950
KKS-1 29 Apr 17:36:21 17:40:49 87° 103° (ESE) 17:45:14 437.445
XW-2C 29 Apr 17:45:24 17:48:47 33° 72° (ENE) 17:52:11 145.795 - 145.815
AO-7 29 Apr 17:46:08 17:49:08 12° 271° (W) 17:52:09 .
LilacSat-2 29 Apr 17:48:04 17:51:34 38° 73° (ENE) 17:55:05 437.200
MOZHAYETS 4 29 Apr 17:50:01 17:52:11 13° 297° (WNW) 17:54:21
CUTE-I 29 Apr 17:51:44 17:56:47 45° 70° (ENE) 18:01:51 437.470
RS-15 29 Apr 17:54:22 18:05:05 39° 254° (WSW) 18:15:21 29.354- 29.394
STARS 29 Apr 17:58:50 18:03:10 64° 102° (ESE) 18:07:29 437.465
DOVE 4 29 Apr 18:00:10 18:05:29 89° 246° (WSW) 18:10:42 437.250
XW-2F 29 Apr 18:08:02 18:11:43 64° 76° (ENE) 18:15:25 145.980 - 146.000
NUDT-PHONESAT 29 Apr 18:09:28 18:13:01 53° 75° (ENE) 18:16:37 437.300
JUGNU 29 Apr 18:22:12 18:23:28 11° 183° (S) 18:24:46 437.505
CUBESAT XI-V 29 Apr 18:49:03 18:52:13 18° 295° (WNW) 18:55:23 437.345
XW-2A 29 Apr 19:00:30 19:03:27 29° 72° (ENE) 19:06:25 145.665 - 145.685
XW-2D 29 Apr 19:00:47 19:03:49 23° 264° (W) 19:06:53 145.860 - 145.880
NO-84 29 Apr 19:05:54 19:09:37 50° 319° (NW) 19:13:01 435.350 FM
HO-68 29 Apr 19:06:35 19:13:35 61° 70° (ENE) 19:20:37 435.675
STRAND 1 29 Apr 19:07:15 19:10:07 15° 92° (E) 19:12:59 437.568
XW-2B 29 Apr 19:08:05 19:10:54 20° 265° (W) 19:13:44 145.730 - 145.750
KAITUO 1B 29 Apr 19:09:17 19:12:17 24° 265° (W) 19:15:19 145.475/437.950
O/OREOS (USA 219) 29 Apr 19:16:07 19:20:18 34° 62° (ENE) 19:24:26 437.305
AAUSAT CUBESAT 2 29 Apr 19:17:29 19:20:05 16° 66° (ENE) 19:22:40 437.432
XW-2C 29 Apr 19:21:01 19:23:05 14° 267° (W) 19:25:10 145.795 - 145.815
LilacSat-2 29 Apr 19:24:19 19:26:00 13° 268° (W) 19:27:42 437.200
UWE-3 29 Apr 19:25:53 19:28:45 18° 68° (ENE) 19:31:36 435.000/436.395/437.385
M-CUBED/EXP-1 PRIME 29 Apr 19:32:30 19:34:01 12° 95° (E) 19:35:28 437.505
CUTE-I 29 Apr 19:32:58 19:37:00 22° 266° (W) 19:41:02 437.470
STARS 29 Apr 19:37:26 19:38:57 12° 298° (WNW) 19:40:27 437.465
CUTE 1.7 + AOD 2 29 Apr 19:39:55 19:44:06 82° 256° (WSW) 19:48:23 437.475
CUBEBUG 2 29 Apr 19:44:48 19:48:59 50° 74° (ENE) 19:53:04 437.445
SRMSAT 29 Apr 19:51:03 19:52:35 11° 176° (S) 19:54:05 437.500
SEEDS 29 Apr 19:53:22 19:57:33 90° 257° (WSW) 20:01:48 437.485
ZACube-1 29 Apr 20:12:32 20:16:17 33° 71° (ENE) 20:20:01 437.345
AO-73 29 Apr 20:17:20 20:21:05 34° 71° (ENE) 20:24:48 145.935
Oscar 11 29 Apr 20:28:22 20:32:21 38° 72° (ENE) 20:36:21 .
XW-2A 29 Apr 20:34:49 20:36:17 12° 267° (W) 20:37:45 145.665 - 145.685
AO-85 29 Apr 20:34:55 20:38:44 43° 55° (NE) 20:42:42 145.980
BEESAT 3 29 Apr 20:42:31 20:44:09 12° 42° (NE) 20:45:47 437.485
STRAND 1 29 Apr 20:44:38 20:49:39 60° 287° (WNW) 20:54:41 437.568
NO-84 29 Apr 20:47:18 20:47:45 10° 336° (NNW) 20:48:12 435.350 FM
AAUSAT CUBESAT 2 29 Apr 20:51:18 20:55:11 39° 262° (W) 20:59:07 437.432
O/OREOS (USA 219) 29 Apr 20:56:00 20:59:28 21° 259° (W) 21:02:53 437.305
OBJECT BX 29 Apr 20:56:01 20:57:58 14° 67° (ENE) 20:59:54 145.990 - 145.960
HO-68 29 Apr 20:56:09 21:01:42 24° 266° (W) 21:07:17 435.675
UWE-3 29 Apr 21:01:04 21:04:58 35° 262° (W) 21:08:48 435.000/436.395/437.385
DELFI C3 29 Apr 21:04:37 21:07:58 26° 70° (ENE) 21:11:21 145.870
M-CUBED/EXP-1 PRIME 29 Apr 21:04:54 21:08:48 46° 293° (WNW) 21:12:24 437.505
CUBEBUG 2 29 Apr 21:23:55 21:25:50 13° 268° (W) 21:27:44 437.445
SRMSAT 29 Apr 21:40:14 21:40:48 10° 187° (S) 21:41:21 437.500
ZACube-1 29 Apr 21:49:46 21:52:38 18° 266° (W) 21:55:30 437.345
AO-73 29 Apr 21:54:35 21:57:23 17° 267° (W) 22:00:12 145.935
FO-29 29 Apr 22:01:53 22:05:20 17° 94° (E) 22:08:55 435.910
